When you browse on this site, cookies collect data to enhance your experience and personalize the content and advertising you see.
Visit our Privacy Policy to learn more. By continuing to use the site, you agree to this use of cookies and data.
  • In Spain
  • List of Countries
  • For 7 days
  • Water Temperature
  • Satellite Maps
  • Weather Map
  • Weather Widgets
  • user-avatar
    Login

    Hourly Weather Lavumisa

    Today, 19 December, Wednesday

    Time Temperature Precipitation Wind Pressure Humidity
    00:00 +27°C° 0 mm 1 mps 743 mmHg 78%
    01:00 +27°C° 0 mm 1 mps 743 mmHg 80%
    02:00 +26°C° 0 mm 1 mps 743 mmHg 79%
    03:00 +26°C° 0 mm 1 mps 743 mmHg 81%
    04:00 +26°C° 0 mm 1 mps 742 mmHg 83%
    05:00 +25°C° 0 mm 1 mps 742 mmHg 85%
    06:00 +28°C° 0 mm 1 mps 742 mmHg 76%
    07:00 +30°C° 0 mm 1 mps 743 mmHg 68%
    08:00 +32°C° 0 mm 1 mps 743 mmHg 59%
    09:00 +35°C° 0 mm 1 mps 743 mmHg 51%
    10:00 +37°C° 0 mm 1 mps 742 mmHg 43%
    11:00 +41°C° 0 mm 1 mps 742 mmHg 35%
    12:00 +41°C° 0 mm 2 mps 742 mmHg 35%
    13:00 +41°C° 0 mm 2 mps 741 mmHg 34%
    14:00 +42°C° 0 mm 3 mps 741 mmHg 34%
    15:00 +40°C° 0 mm 4 mps 741 mmHg 43%
    16:00 +37°C° 0 mm 5 mps 741 mmHg 51%
    17:00 +34°C° 0 mm 5 mps 741 mmHg 59%
    18:00 +32°C° 1.1 mm 5 mps 742 mmHg 69%
    19:00 +29°C° 1.1 mm 4 mps 743 mmHg 79%
    20:00 +26°C° 1.1 mm 3 mps 743 mmHg 89%
    21:00 +26°C° 1.5 mm 3 mps 744 mmHg 90%
    22:00 +25°C° 1.5 mm 2 mps 745 mmHg 91%
    23:00 +25°C° 1.5 mm 2 mps 746 mmHg 93%

    Tomorrow, 20 December, Thursday

    Time Temperature Precipitation Wind Pressure Humidity
    00:00 +24°C° 1 mm 2 mps 746 mmHg 93%
    01:00 +24°C° 1 mm 2 mps 746 mmHg 93%
    02:00 +24°C° 1 mm 2 mps 746 mmHg 93%
    03:00 +24°C° 0.6 mm 2 mps 746 mmHg 94%
    04:00 +24°C° 0.6 mm 2 mps 746 mmHg 94%
    05:00 +23°C° 0.6 mm 2 mps 746 mmHg 94%
    06:00 +24°C° 0.5 mm 2 mps 747 mmHg 91%
    07:00 +24°C° 0.5 mm 2 mps 747 mmHg 88%
    08:00 +25°C° 0.5 mm 2 mps 748 mmHg 85%
    09:00 +25°C° 0.2 mm 3 mps 748 mmHg 80%
    10:00 +26°C° 0.2 mm 3 mps 748 mmHg 75%
    11:00 +27°C° 0.2 mm 3 mps 748 mmHg 70%
    12:00 +27°C° 0.1 mm 3 mps 748 mmHg 68%
    13:00 +28°C° 0.1 mm 3 mps 748 mmHg 66%
    14:00 +28°C° 0.1 mm 3 mps 747 mmHg 65%
    15:00 +27°C° 0.2 mm 3 mps 747 mmHg 69%
    16:00 +26°C° 0.2 mm 3 mps 747 mmHg 74%
    17:00 +25°C° 0.2 mm 2 mps 748 mmHg 79%
    18:00 +24°C° 0.1 mm 2 mps 748 mmHg 81%
    19:00 +24°C° 0.1 mm 2 mps 748 mmHg 84%
    20:00 +23°C° 0.1 mm 2 mps 749 mmHg 86%
    21:00 +23°C° 0.1 mm 1 mps 749 mmHg 87%
    22:00 +23°C° 0.1 mm 1 mps 750 mmHg 87%
    23:00 +23°C° 0.1 mm 1 mps 751 mmHg 88%

    Day after tomorrow, 21 December, Friday

    Time Temperature Precipitation Wind Pressure Humidity
    00:00 +22°C° 0 mm 1 mps 750 mmHg 89%
    01:00 +22°C° 0 mm 1 mps 750 mmHg 89%
    02:00 +22°C° 0 mm 1 mps 750 mmHg 90%
    03:00 +22°C° 0 mm 1 mps 750 mmHg 90%
    04:00 +22°C° 0 mm 1 mps 750 mmHg 90%
    05:00 +21°C° 0 mm 1 mps 750 mmHg 90%
    06:00 +23°C° 0 mm 1 mps 750 mmHg 84%
    07:00 +24°C° 0 mm 1 mps 750 mmHg 78%
    08:00 +25°C° 0 mm 1 mps 750 mmHg 72%
    09:00 +27°C° 0 mm 1 mps 750 mmHg 64%
    10:00 +29°C° 0 mm 1 mps 750 mmHg 56%
    11:00 +31°C° 0 mm 1 mps 749 mmHg 48%
    12:00 +31°C° 0 mm 2 mps 749 mmHg 48%
    13:00 +31°C° 0 mm 2 mps 748 mmHg 48%
    14:00 +31°C° 0 mm 3 mps 747 mmHg 47%
    15:00 +30°C° 0 mm 3 mps 747 mmHg 51%
    16:00 +29°C° 0 mm 3 mps 746 mmHg 55%
    17:00 +28°C° 0 mm 4 mps 746 mmHg 60%
    18:00 +27°C° 0 mm 3 mps 747 mmHg 66%
    19:00 +25°C° 0 mm 3 mps 747 mmHg 73%
    20:00 +24°C° 0 mm 2 mps 748 mmHg 80%
    21:00 +24°C° 0.1 mm 2 mps 748 mmHg 82%
    22:00 +24°C° 0.1 mm 1 mps 748 mmHg 85%
    23:00 +23°C° 0.1 mm 1 mps 748 mmHg 87%

    22 December, Saturday

    Time Temperature Precipitation Wind Pressure Humidity
    00:00 +23°C° 0.1 mm 1 mps 748 mmHg 88%
    01:00 +23°C° 0.1 mm 1 mps 747 mmHg 89%
    02:00 +23°C° 0.1 mm 1 mps 747 mmHg 90%
    03:00 +22°C° 0 mm 1 mps 747 mmHg 91%
    04:00 +22°C° 0 mm 1 mps 747 mmHg 92%
    05:00 +22°C° 0 mm 1 mps 747 mmHg 94%
    06:00 +24°C° 0 mm 1 mps 747 mmHg 86%
    07:00 +25°C° 0 mm 2 mps 747 mmHg 78%
    08:00 +27°C° 0 mm 2 mps 746 mmHg 70%
    09:00 +28°C° 0 mm 2 mps 746 mmHg 64%
    10:00 +30°C° 0 mm 3 mps 745 mmHg 59%
    11:00 +33°C° 0 mm 3 mps 744 mmHg 53%
    12:00 +34°C° 0 mm 3 mps 744 mmHg 50%
    13:00 +35°C° 0 mm 4 mps 743 mmHg 47%
    14:00 +37°C° 0 mm 4 mps 742 mmHg 44%
    15:00 +35°C° 0.1 mm 4 mps 742 mmHg 48%
    16:00 +34°C° 0.1 mm 5 mps 742 mmHg 52%
    17:00 +33°C° 0.1 mm 5 mps 742 mmHg 56%
    18:00 +29°C° 2.8 mm 4 mps 743 mmHg 69%
    19:00 +26°C° 2.8 mm 3 mps 743 mmHg 82%
    20:00 +24°C° 2.8 mm 2 mps 744 mmHg 95%
    21:00 +24°C° 1.6 mm 1 mps 745 mmHg 95%
    22:00 +24°C° 1.6 mm 1 mps 746 mmHg 95%
    23:00 +24°C° 1.6 mm 1 mps 746 mmHg 96%

    23 December, Sunday

    Time Temperature Precipitation Wind Pressure Humidity
    00:00 +24°C° 0.1 mm 1 mps 746 mmHg 96%
    01:00 +24°C° 0.1 mm 1 mps 746 mmHg 96%
    02:00 +24°C° 0.1 mm 1 mps 745 mmHg 96%
    03:00 +24°C° 0.2 mm 1 mps 746 mmHg 96%
    04:00 +24°C° 0.2 mm 1 mps 746 mmHg 96%
    05:00 +23°C° 0.2 mm 1 mps 746 mmHg 96%
    06:00 +24°C° 0.1 mm 1 mps 746 mmHg 95%
    07:00 +24°C° 0.1 mm 1 mps 746 mmHg 93%
    08:00 +25°C° 0.1 mm 1 mps 746 mmHg 92%
    09:00 +25°C° 0.1 mm 1 mps 746 mmHg 89%
    10:00 +26°C° 0.1 mm 1 mps 746 mmHg 86%
    11:00 +26°C° 0.1 mm 1 mps 746 mmHg 84%
    12:00 +27°C° 0.2 mm 1 mps 745 mmHg 80%
    13:00 +28°C° 0.2 mm 2 mps 745 mmHg 76%
    14:00 +29°C° 0.2 mm 2 mps 744 mmHg 72%
    15:00 +28°C° 0.1 mm 2 mps 744 mmHg 76%
    16:00 +27°C° 0.1 mm 3 mps 744 mmHg 81%
    17:00 +26°C° 0.1 mm 3 mps 744 mmHg 85%
    18:00 +25°C° 0.2 mm 2 mps 744 mmHg 88%
    19:00 +25°C° 0.2 mm 2 mps 745 mmHg 91%
    20:00 +24°C° 0.2 mm 1 mps 745 mmHg 93%
    21:00 +24°C° 0.2 mm 1 mps 745 mmHg 94%
    22:00 +24°C° 0.2 mm 1 mps 746 mmHg 94%
    23:00 +24°C° 0.2 mm 1 mps 746 mmHg 94%

    24 December, Monday

    Time Temperature Precipitation Wind Pressure Humidity
    00:00 +24°C° 0.1 mm 1 mps 745 mmHg 94%
    01:00 +23°C° 0.1 mm 1 mps 745 mmHg 94%
    02:00 +23°C° 0.1 mm 1 mps 745 mmHg 95%
    03:00 +23°C° 0.1 mm 1 mps 745 mmHg 95%
    04:00 +23°C° 0.1 mm 1 mps 745 mmHg 95%
    05:00 +23°C° 0.1 mm 1 mps 745 mmHg 96%
    06:00 +24°C° 0 mm 1 mps 745 mmHg 93%
    07:00 +24°C° 0 mm 1 mps 745 mmHg 91%
    08:00 +25°C° 0 mm 1 mps 745 mmHg 88%
    09:00 +26°C° 0.2 mm 1 mps 745 mmHg 83%
    10:00 +27°C° 0.2 mm 2 mps 745 mmHg 77%
    11:00 +29°C° 0.2 mm 2 mps 745 mmHg 71%
    12:00 +30°C° 0 mm 2 mps 744 mmHg 68%
    13:00 +30°C° 0 mm 2 mps 744 mmHg 65%
    14:00 +31°C° 0 mm 2 mps 743 mmHg 62%
    15:00 +31°C° 0 mm 3 mps 743 mmHg 64%
    16:00 +30°C° 0 mm 3 mps 743 mmHg 67%
    17:00 +29°C° 0 mm 3 mps 743 mmHg 69%
    18:00 +28°C° 0.4 mm 3 mps 744 mmHg 75%
    19:00 +27°C° 0.4 mm 2 mps 744 mmHg 81%
    20:00 +26°C° 0.4 mm 1 mps 745 mmHg 88%
    21:00 +25°C° 0.1 mm 1 mps 745 mmHg 89%
    22:00 +25°C° 0.1 mm 1 mps 745 mmHg 91%
    23:00 +24°C° 0.1 mm 1 mps 745 mmHg 93%
    Show more